Погода в Мейденхеде

Великобритания     51°31′20″N   0°43′36″E
темп.,
°C
ветер,
м/с
пор.,
м/с
влажн.,
%
обл.,
%
осадки,
мм/ч
давл.,
гПа
погр.,
м
9 мая, вс
вс901:00+12ююз7168310 0.0 1000720
04:00+11ю6168918 0.0 998600
07:00+13ююз6148577 0.0 997711
10:00+16ююз8127697 0.0 9971084
13:00+14ююз61284100 0.1 997841
16:00+16ююз71180100 0.3 9971092
19:00+14юз4788100 0.9 996411
22:00+11ююз2395100 0.2 99671
10 мая, пн
пн1001:00+10ююз41094100 1.4 997428
04:00+8ююз51294100 0.0 997478
07:00+10ююз81284100 0.0 998921
10:00+11ююз8138360 0.1 9991142
13:00+14ююз11146422 0.7 10011750
16:00+14ююз1014615 0.1 10021683
19:00+12ююз611713 0.1 10031033
22:00+7ю389338 0.0 1006174
11 мая, вт
вт1101:00+6ю23955 0.0 100745
04:00+5ю229284 0.0 100614
07:00+8вюв378920 0.0 1007219
10:00+12ю587382 0.3 10071233
13:00+15ю8105417 0.6 10061862
16:00+13ю8136799 0.1 10061667
19:00+12ю7127925 0.3 10061122
22:00+10ю71384100 0.0 1007888
12 мая, ср
ср1201:00+10ююз4109089 0.3 1008712
04:00+10ююз5987100 0.2 1007749
07:00+9ююз4887100 0.4 1008729
10:00+12ююз677992 0.5 10081075
13:00+12ююз5778100 1.4 10081170
16:00+13ююз577580 0.7 1008936
19:00+12ю46711 0.8 1008842
22:00+8ююв5109496 0.0 1008336
13 мая, чт
чт1301:00+9ююз4793100 0.1 1008388
04:00+8з469673 0.0 1008278
07:00+8зюз3492100 0.0 1009159
10:00+12з2375100 0.1 1009842
13:00+14зюз336797 1.4 10091341
16:00+15зюз346542 0.7 10081233
19:00+13зюз35814 1.9 1009325
22:00+8зюз22907 0.7 101020